User: anonymous
Location: Caltech
(34.1382°N, 118.1253°W)
Time: 15:22:31
(UTC-07:00)
Language:

NOSS 3-2 (A) - Orbit

View from above orbital plane
View from above orbital plane
View from above satellite
View from above satellite

Ground track
Ground track

The orbit data is extracted from the following two-line orbital elements,

1 28095U 03054A   14260.05541789 0.00000050  00000-0  78143-4 0    03
2 28095  63.4290 354.2033 0218000 357.7620   2.2380 13.41289879    08
Epoch (UTC): 17 September 2014 01:19:48
Eccentricity: 0.0218000
inclination: 63.4290°
perigee height: 941 km
apogee height: 1267 km
right ascension of ascending node: 354.2033°
argument of perigee: 357.7620°
revolutions per day: 13.41289879
mean anomaly at epoch: 2.2380°
orbit number at epoch: 0

The dashed part of the orbit path shows where the satellite is in the earth's shadow,  

DLR